Time,TemperatureF,DewpointF,PressureIn,WindDirection,WindDirectionDegrees,WindSpeedMPH,WindSpeedGustMPH,Humidity,HourlyPrecipIn,Conditions,Clouds,dailyrainin,SoftwareType,DateUTC
2013-09-10 00:00:00,68.0,61.7,30.10,SW,225,3.4,3.4,80,0.00,,,0.00,WUHU216HW,2013-09-10 04:00:00,
2013-09-10 00:01:00,68.0,61.7,30.10,SW,225,3.4,3.4,80,0.00,,,0.00,WUHU216HW,2013-09-10 04:01:00,
2013-09-10 00:06:00,68.0,61.7,30.10,SW,225,3.4,3.4,80,0.00,,,0.00,WUHU216HW,2013-09-10 04:06:00,
2013-09-10 00:30:00,67.9,61.6,30.09,SW,225,1.1,1.1,80,0.00,,,0.00,WUHU216HW,2013-09-10 04:30:00,
2013-09-10 00:35:00,67.9,61.6,30.09,SW,225,1.1,1.1,80,0.00,,,0.00,WUHU216HW,2013-09-10 04:35:00,
2013-09-10 01:00:00,67.3,61.0,30.10,SW,225,0.0,0.0,80,0.00,,,0.00,WUHU216HW,2013-09-10 05:00:00,
2013-09-10 01:05:00,67.3,61.0,30.10,SW,225,0.0,0.0,80,0.00,,,0.00,WUHU216HW,2013-09-10 05:05:00,
2013-09-10 01:30:00,66.6,60.9,30.09,SSW,203,4.7,4.7,82,0.00,,,0.00,WUHU216HW,2013-09-10 05:30:00,
2013-09-10 01:35:00,66.6,60.9,30.09,SSW,203,4.7,4.7,82,0.00,,,0.00,WUHU216HW,2013-09-10 05:35:00,
2013-09-10 02:00:00,66.6,60.9,30.09,SW,225,2.5,2.5,82,0.00,,,0.00,WUHU216HW,2013-09-10 06:00:00,
2013-09-10 02:05:00,66.6,60.9,30.09,SW,225,2.5,2.5,82,0.00,,,0.00,WUHU216HW,2013-09-10 06:05:00,
2013-09-10 02:30:00,66.4,60.8,30.10,SW,225,2.5,2.5,82,0.00,,,0.00,WUHU216HW,2013-09-10 06:30:00,
2013-09-10 02:35:00,66.4,60.8,30.10,SW,225,2.5,2.5,82,0.00,,,0.00,WUHU216HW,2013-09-10 06:35:00,
2013-09-10 03:00:00,66.6,60.9,30.09,SSW,203,1.8,1.8,82,0.00,,,0.00,WUHU216HW,2013-09-10 07:00:00,
2013-09-10 03:05:00,66.6,60.9,30.09,SSW,203,1.8,1.8,82,0.00,,,0.00,WUHU216HW,2013-09-10 07:05:00,
2013-09-10 03:30:00,66.2,60.9,30.08,SW,225,1.8,1.8,83,0.00,,,0.00,WUHU216HW,2013-09-10 07:30:00,
2013-09-10 03:35:00,66.2,60.9,30.08,SW,225,1.8,1.8,83,0.00,,,0.00,WUHU216HW,2013-09-10 07:35:00,
2013-09-10 04:00:00,66.1,60.8,30.08,WSW,248,2.9,2.9,83,0.00,,,0.00,WUHU216HW,2013-09-10 08:00:00,
2013-09-10 04:05:00,66.1,60.8,30.08,WSW,248,2.9,2.9,83,0.00,,,0.00,WUHU216HW,2013-09-10 08:05:00,
2013-09-10 04:30:00,66.6,61.6,30.08,WSW,248,1.3,1.3,84,0.00,,,0.00,WUHU216HW,2013-09-10 08:30:00,
2013-09-10 04:35:00,66.6,61.6,30.08,WSW,248,1.3,1.3,84,0.00,,,0.00,WUHU216HW,2013-09-10 08:35:00,
2013-09-10 05:00:00,67.3,62.3,30.08,SW,225,1.3,1.3,84,0.00,,,0.00,WUHU216HW,2013-09-10 09:00:00,
2013-09-10 05:05:00,67.3,62.3,30.08,SSW,203,1.1,1.3,84,0.00,,,0.00,WUHU216HW,2013-09-10 09:05:00,
2013-09-10 05:30:00,67.9,62.8,30.09,WSW,248,4.7,4.7,84,0.00,,,0.00,WUHU216HW,2013-09-10 09:30:00,
2013-09-10 05:35:00,67.9,62.8,30.09,WSW,248,4.7,4.7,84,0.00,,,0.00,WUHU216HW,2013-09-10 09:35:00,
2013-09-10 06:00:00,68.0,62.7,30.09,West,270,4.0,4.0,83,0.00,,,0.00,WUHU216HW,2013-09-10 10:00:00,
2013-09-10 06:05:00,68.0,62.7,30.09,SSW,203,3.4,4.0,83,0.00,,,0.00,WUHU216HW,2013-09-10 10:05:00,
2013-09-10 06:30:00,68.4,63.1,30.11,SSW,203,2.5,2.5,83,0.00,,,0.00,WUHU216HW,2013-09-10 10:30:00,
2013-09-10 06:35:00,68.4,63.1,30.11,SSW,203,2.5,2.5,83,0.00,,,0.00,WUHU216HW,2013-09-10 10:35:00,
2013-09-10 07:00:00,68.4,63.1,30.12,SSW,203,2.0,2.0,83,0.00,,,0.00,WUHU216HW,2013-09-10 11:00:00,
2013-09-10 07:05:00,68.4,63.1,30.12,SSW,203,1.1,2.0,83,0.00,,,0.00,WUHU216HW,2013-09-10 11:05:00,
2013-09-10 07:30:00,68.8,63.7,30.13,South,180,4.3,4.3,84,0.00,,,0.00,WUHU216HW,2013-09-10 11:30:00,
2013-09-10 07:35:00,68.8,63.7,30.13,South,180,4.3,4.3,84,0.00,,,0.00,WUHU216HW,2013-09-10 11:35:00,
2013-09-10 08:00:00,69.5,64.1,30.13,SW,225,2.5,2.5,83,0.00,,,0.00,WUHU216HW,2013-09-10 12:00:00,
2013-09-10 08:05:00,69.5,64.1,30.13,West,270,0.7,2.5,83,0.00,,,0.00,WUHU216HW,2013-09-10 12:05:00,
2013-09-10 08:30:00,71.3,65.5,30.13,West,270,1.8,1.8,82,0.00,,,0.00,WUHU216HW,2013-09-10 12:30:00,
2013-09-10 08:35:00,71.3,65.5,30.13,West,270,1.8,1.8,82,0.00,,,0.00,WUHU216HW,2013-09-10 12:35:00,
2013-09-10 09:00:00,74.2,66.9,30.13,SSW,203,3.4,3.4,78,0.00,,,0.00,WUHU216HW,2013-09-10 13:00:00,
2013-09-10 09:05:00,74.2,66.9,30.13,SSW,203,3.4,3.4,78,0.00,,,0.00,WUHU216HW,2013-09-10 13:05:00,
2013-09-10 09:30:00,77.0,68.1,30.14,WSW,248,6.9,6.9,74,0.00,,,0.00,WUHU216HW,2013-09-10 13:30:00,
2013-09-10 09:35:00,77.0,68.1,30.14,WSW,248,6.9,6.9,74,0.00,,,0.00,WUHU216HW,2013-09-10 13:35:00,
2013-09-10 10:00:00,79.9,69.3,30.15,SE,135,2.9,2.9,70,0.00,,,0.00,WUHU216HW,2013-09-10 14:00:00,
2013-09-10 10:05:00,79.9,69.3,30.15,SW,225,3.4,3.4,70,0.00,,,0.00,WUHU216HW,2013-09-10 14:05:00,
2013-09-10 10:30:00,82.8,70.2,30.15,NNE,23,1.1,1.1,66,0.00,,,0.00,WUHU216HW,2013-09-10 14:30:00,
2013-09-10 10:35:00,82.8,70.2,30.15,NNE,23,1.1,1.1,66,0.00,,,0.00,WUHU216HW,2013-09-10 14:35:00,
2013-09-10 10:59:00,85.3,70.8,30.15,WSW,248,6.5,6.5,62,0.00,,,0.00,WUHU216HW,2013-09-10 14:59:00,
2013-09-10 11:00:00,85.3,70.8,30.15,WSW,248,6.5,6.5,62,0.00,,,0.00,WUHU216HW,2013-09-10 15:00:00,
2013-09-10 11:05:00,85.3,70.8,30.15,WSW,248,6.5,6.5,62,0.00,,,0.00,WUHU216HW,2013-09-10 15:05:00,
2013-09-10 11:30:00,87.5,71.5,30.14,SW,225,2.2,2.2,59,0.00,,,0.00,WUHU216HW,2013-09-10 15:30:00,
2013-09-10 11:35:00,87.5,71.5,30.14,SW,225,2.2,2.2,59,0.00,,,0.00,WUHU216HW,2013-09-10 15:35:00,
2013-09-10 11:59:00,89.5,71.6,30.14,SSW,203,4.7,4.7,56,0.00,,,0.00,WUHU216HW,2013-09-10 15:59:00,
2013-09-10 12:00:00,89.5,71.6,30.14,SSW,203,4.7,4.7,56,0.00,,,0.00,WUHU216HW,2013-09-10 16:00:00,
2013-09-10 12:05:00,89.5,71.6,30.14,SSW,203,4.7,4.7,56,0.00,,,0.00,WUHU216HW,2013-09-10 16:05:00,
2013-09-10 12:30:00,91.4,70.7,30.13,SW,225,4.7,4.7,51,0.00,,,0.00,WUHU216HW,2013-09-10 16:30:00,
2013-09-10 12:35:00,91.4,70.7,30.13,SW,225,4.7,4.7,51,0.00,,,0.00,WUHU216HW,2013-09-10 16:35:00,
2013-09-10 12:59:00,92.7,70.7,30.13,North,0,1.1,1.1,49,0.00,,,0.00,WUHU216HW,2013-09-10 16:59:00,
2013-09-10 13:00:00,92.7,70.7,30.13,North,0,1.1,1.1,49,0.00,,,0.00,WUHU216HW,2013-09-10 17:00:00,
2013-09-10 13:05:00,92.7,70.7,30.13,North,0,1.1,1.1,49,0.00,,,0.00,WUHU216HW,2013-09-10 17:05:00,
2013-09-10 13:30:00,93.1,72.2,30.12,SW,225,3.8,3.8,51,0.00,,,0.00,WUHU216HW,2013-09-10 17:30:00,
2013-09-10 13:35:00,93.1,72.2,30.12,SW,225,3.8,3.8,51,0.00,,,0.00,WUHU216HW,2013-09-10 17:35:00,
2013-09-10 14:00:00,94.5,73.1,30.11,SW,225,5.4,5.4,50,0.00,,,0.00,WUHU216HW,2013-09-10 18:00:00,
2013-09-10 14:05:00,94.5,73.1,30.11,SW,225,5.4,5.4,50,0.00,,,0.00,WUHU216HW,2013-09-10 18:05:00,
2013-09-10 14:30:00,94.5,72.5,30.10,SW,225,1.8,1.8,49,0.00,,,0.00,WUHU216HW,2013-09-10 18:30:00,
2013-09-10 14:35:00,94.5,72.5,30.10,SW,225,1.8,1.8,49,0.00,,,0.00,WUHU216HW,2013-09-10 18:35:00,
2013-09-10 15:00:00,93.8,71.7,30.09,WSW,248,0.9,0.9,49,0.00,,,0.00,WUHU216HW,2013-09-10 19:00:00,
2013-09-10 15:05:00,93.8,71.7,30.09,WSW,248,0.9,0.9,49,0.00,,,0.00,WUHU216HW,2013-09-10 19:05:00,
2013-09-10 15:30:00,93.4,72.0,30.08,South,180,2.5,2.5,50,0.00,,,0.00,WUHU216HW,2013-09-10 19:30:00,
2013-09-10 15:35:00,93.4,72.0,30.08,South,180,2.5,2.5,50,0.00,,,0.00,WUHU216HW,2013-09-10 19:35:00,
2013-09-10 16:00:00,93.6,71.6,30.07,SSW,203,4.7,4.7,49,0.00,,,0.00,WUHU216HW,2013-09-10 20:00:00,
2013-09-10 16:05:00,93.6,71.6,30.07,SSW,203,4.7,4.7,49,0.00,,,0.00,WUHU216HW,2013-09-10 20:05:00,
2013-09-10 16:30:00,92.9,71.5,30.07,WSW,248,5.4,5.4,50,0.00,,,0.00,WUHU216HW,2013-09-10 20:30:00,
2013-09-10 16:35:00,92.9,71.5,30.07,WSW,248,5.4,5.4,50,0.00,,,0.00,WUHU216HW,2013-09-10 20:35:00,
2013-09-10 16:59:00,92.0,70.7,30.07,WSW,248,3.6,3.6,50,0.00,,,0.00,WUHU216HW,2013-09-10 20:59:00,
2013-09-10 17:00:00,92.0,70.7,30.07,WSW,248,3.6,3.6,50,0.00,,,0.00,WUHU216HW,2013-09-10 21:00:00,
2013-09-10 17:05:00,92.0,70.7,30.07,WSW,248,3.6,3.6,50,0.00,,,0.00,WUHU216HW,2013-09-10 21:05:00,
2013-09-10 17:30:00,91.1,69.8,30.07,SSW,203,7.4,7.4,50,0.00,,,0.00,WUHU216HW,2013-09-10 21:30:00,
2013-09-10 17:35:00,91.1,69.8,30.07,SSW,203,7.4,7.4,50,0.00,,,0.00,WUHU216HW,2013-09-10 21:35:00,
2013-09-10 17:59:00,90.4,69.8,30.07,SW,225,2.0,2.0,51,0.00,,,0.00,WUHU216HW,2013-09-10 21:59:00,
2013-09-10 18:00:00,90.4,69.8,30.07,SW,225,2.0,2.0,51,0.00,,,0.00,WUHU216HW,2013-09-10 22:00:00,
2013-09-10 18:05:00,90.4,69.8,30.07,SW,225,2.0,2.0,51,0.00,,,0.00,WUHU216HW,2013-09-10 22:05:00,
2013-09-10 18:30:00,89.3,72.0,30.07,SSW,203,4.3,4.3,57,0.00,,,0.00,WUHU216HW,2013-09-10 22:30:00,
2013-09-10 18:35:00,89.3,72.0,30.07,SSW,203,4.3,4.3,57,0.00,,,0.00,WUHU216HW,2013-09-10 22:35:00,
2013-09-10 19:00:00,87.7,71.6,30.07,South,180,1.3,1.3,59,0.00,,,0.00,WUHU216HW,2013-09-10 23:00:00,
2013-09-10 19:05:00,87.7,71.6,30.07,South,180,1.3,1.3,59,0.00,,,0.00,WUHU216HW,2013-09-10 23:05:00,
2013-09-10 19:30:00,86.2,71.2,30.08,SW,225,1.1,1.1,61,0.00,,,0.00,WUHU216HW,2013-09-10 23:30:00,
2013-09-10 19:35:00,86.2,71.2,30.08,SW,225,1.1,1.1,61,0.00,,,0.00,WUHU216HW,2013-09-10 23:35:00,
2013-09-10 20:00:00,84.2,70.7,30.07,SW,225,2.5,2.5,64,0.00,,,0.00,WUHU216HW,2013-09-11 00:00:00,
2013-09-10 20:05:00,84.2,70.7,30.07,SSE,158,2.9,2.9,64,0.00,,,0.00,WUHU216HW,2013-09-11 00:05:00,
2013-09-10 20:30:00,82.4,70.7,30.08,WSW,248,3.1,3.1,68,0.00,,,0.00,WUHU216HW,2013-09-11 00:30:00,
2013-09-10 20:35:00,82.4,70.7,30.08,WSW,248,3.1,3.1,68,0.00,,,0.00,WUHU216HW,2013-09-11 00:35:00,
2013-09-10 21:00:00,81.0,69.5,30.10,WSW,248,1.1,1.1,68,0.00,,,0.00,WUHU216HW,2013-09-11 01:00:00,
2013-09-10 21:05:00,81.0,69.5,30.10,WSW,248,1.1,1.1,68,0.00,,,0.00,WUHU216HW,2013-09-11 01:05:00,
2013-09-10 21:30:00,80.1,69.5,30.10,SSW,203,1.8,1.8,70,0.00,,,0.00,WUHU216HW,2013-09-11 01:30:00,
2013-09-10 21:35:00,80.1,69.5,30.10,SSW,203,1.8,1.8,70,0.00,,,0.00,WUHU216HW,2013-09-11 01:35:00,
2013-09-10 22:00:00,78.8,68.6,30.12,SSW,203,0.0,0.0,71,0.00,,,0.00,WUHU216HW,2013-09-11 02:00:00,
2013-09-10 22:05:00,78.8,68.6,30.12,SSW,203,0.0,0.0,71,0.00,,,0.00,WUHU216HW,2013-09-11 02:05:00,
2013-09-10 22:30:00,78.1,68.8,30.12,SSW,203,2.2,2.2,73,0.00,,,0.00,WUHU216HW,2013-09-11 02:30:00,
2013-09-10 22:35:00,78.1,68.8,30.12,SSW,203,2.2,2.2,73,0.00,,,0.00,WUHU216HW,2013-09-11 02:35:00,
2013-09-10 23:00:00,77.4,68.5,30.12,SW,225,2.2,2.2,74,0.00,,,0.00,WUHU216HW,2013-09-11 03:00:00,
2013-09-10 23:05:00,77.4,68.5,30.12,SSW,203,2.5,2.5,74,0.00,,,0.00,WUHU216HW,2013-09-11 03:05:00,
2013-09-10 23:30:00,76.7,68.1,30.13,SSW,203,0.7,0.7,75,0.00,,,0.00,WUHU216HW,2013-09-11 03:30:00,
2013-09-10 23:35:00,76.7,68.1,30.13,SSW,203,0.7,0.7,75,0.00,,,0.00,WUHU216HW,2013-09-11 03:35:00,
2013-09-10 23:59:00,76.5,68.4,30.13,SW,225,2.0,2.0,76,0.00,,,0.00,WUHU216HW,2013-09-11 03:59:00,